Key West High School FL US WEATHERSTEM current weather conditions

sailwx.info

Wind from 169 at 2 knots gusting 5

Air temperature 32.1° C
Dewpoint 24.9° C

Last reported at 2019-Oct-22 20:00 UTC.
Time now 2019-Oct-22 21:06 UTC

Location: N 24°33' W 081°47'.
View on Google Maps.

See reports from other nearby stations

  
Tides and Currents Weather Stations Pressure Air Temp Water Temp Dewpoint Dewpoint Depression Visibility Wind Speed Wind Dir Waves Ship Positions
date/time (UTC)wind fromknots sea level pressurealtimeterstation pressurevisibilityair tempwater tempwave heightnotes
2019-Oct-22 20:00 169 2 gusting 5 32.1
2019-Oct-22 19:50 32.1
2019-Oct-22 19:40 115 2 gusting 5 32.0
2019-Oct-22 19:30 112 1 gusting 5 32.1
2019-Oct-22 19:20 162 3 gusting 5 32.3
2019-Oct-22 19:10 145 2 gusting 5 32.3
2019-Oct-22 19:00 128 2 gusting 5 32.3
2019-Oct-22 18:50 168 3 gusting 4 32.3
2019-Oct-22 18:40 159 3 gusting 4 32.3
2019-Oct-22 18:30 162 1 gusting 4 32.3
2019-Oct-22 18:20 208 0 gusting 5 32.2
2019-Oct-22 18:10 124 0 gusting 5 31.9
2019-Oct-22 18:00 189 2 gusting 6 31.8
2019-Oct-22 17:50 129 2 gusting 6 31.6
2019-Oct-22 17:40 167 3 gusting 6 31.6
2019-Oct-22 17:30 102 5 gusting 6 31.7
2019-Oct-22 17:20 176 4 gusting 6 31.8
2019-Oct-22 17:10 126 4 gusting 6 31.8
2019-Oct-22 17:00 168 3 gusting 6 31.7
2019-Oct-22 16:50 156 4 gusting 6 31.5
2019-Oct-22 16:40 220 5 gusting 6 31.3
2019-Oct-22 16:30 149 1 gusting 6 31.3
2019-Oct-22 16:20 145 1 gusting 6 31.3
2019-Oct-22 16:10 170 2 gusting 6 31.1
2019-Oct-22 16:00 155 3 gusting 6 31.1
2019-Oct-22 15:50 197 3 gusting 6 31.1
2019-Oct-22 15:40 124 0 gusting 6 31.1
2019-Oct-22 15:30 201 3 gusting 6 31.0
2019-Oct-22 15:20 137 4 gusting 6 31.0
2019-Oct-22 15:10 152 4 gusting 6 31.0
2019-Oct-22 15:00 112 4 gusting 6 31.2
2019-Oct-22 14:50 139 3 gusting 5 31.0
2019-Oct-22 14:40 132 3 gusting 6 30.8
2019-Oct-22 14:30 146 2 gusting 5 30.6
2019-Oct-22 14:20 117 3 gusting 6 30.5
2019-Oct-22 14:10 160 1 gusting 5 30.5
2019-Oct-22 14:00 160 2 gusting 4 30.5
2019-Oct-22 13:50 146 1 gusting 4 30.6
2019-Oct-22 13:40 167 2 gusting 4 30.5
2019-Oct-22 13:30 153 2 gusting 3 30.4
2019-Oct-22 13:20 30.3
2019-Oct-22 13:10 162 1 gusting 3 30.2
2019-Oct-22 13:00 160 0 gusting 4 30.0
2019-Oct-22 12:50 162 2 gusting 3 29.7
2019-Oct-22 12:40 203 0 gusting 6 29.3
2019-Oct-22 12:30 28.9
2019-Oct-22 12:20 154 1 gusting 3 28.6
2019-Oct-22 12:10 141 1 gusting 2 28.3
2019-Oct-22 12:00 176 1 gusting 3 28.0
2019-Oct-22 11:50 152 0 gusting 3 27.9
2019-Oct-22 11:40 155 0 gusting 1 27.9
2019-Oct-22 11:30 27.9
2019-Oct-22 11:20 155 0 gusting 1 27.9
2019-Oct-22 11:10 155 0 gusting 2 27.9
2019-Oct-22 11:00 155 0 gusting 2 27.9
2019-Oct-22 10:50 156 1 gusting 2 27.9
2019-Oct-22 10:40 154 1 gusting 3 28.1
2019-Oct-22 10:30 139 1 gusting 4 28.1
2019-Oct-22 10:20 139 2 gusting 4 28.1
2019-Oct-22 10:10 128 1 gusting 4 28.1
2019-Oct-22 10:00 142 4 gusting 6 28.0
2019-Oct-22 09:50 152 2 gusting 6 28.1
2019-Oct-22 09:40 146 28.1
2019-Oct-22 09:30 134 1 gusting 4 28.1
2019-Oct-22 09:20 167 0 gusting 4 28.0
2019-Oct-22 09:10 143 3 gusting 6 27.9
2019-Oct-22 09:00 127 1 gusting 6 28.1
2019-Oct-22 08:50 125 3 gusting 6 28.0
2019-Oct-22 08:40 141 3 gusting 6 28.0
2019-Oct-22 08:30 152 2 gusting 6 28.0
2019-Oct-22 08:20 136 3 gusting 6 28.1
2019-Oct-22 08:10 117 3 gusting 7 28.1
2019-Oct-22 08:00 129 5 gusting 7 28.0
2019-Oct-22 07:50 127 6 gusting 6 28.1
2019-Oct-22 07:40 127 2 gusting 7 28.1
2019-Oct-22 07:30 157 4 gusting 7 28.1
2019-Oct-22 07:20 127 5 gusting 7 28.1
2019-Oct-22 07:10 148 3 gusting 9 28.1
2019-Oct-22 07:00 129 8 gusting 9 28.1
2019-Oct-22 06:50 136 6 gusting 8 28.2
2019-Oct-22 06:40 127 4 gusting 8 28.2
2019-Oct-22 06:30 154 6 gusting 10 28.3
2019-Oct-22 06:20 132 6 gusting 9 28.3
2019-Oct-22 06:10 136 7 gusting 9 28.3
2019-Oct-22 06:00 121 6 gusting 9 28.3
2019-Oct-22 05:50 110 5 gusting 11 28.3
2019-Oct-22 05:40 109 6 gusting 9 28.3
2019-Oct-22 05:30 136 6 gusting 10 28.4
2019-Oct-22 05:20 139 8 gusting 11 28.3
2019-Oct-22 05:10 121 8 gusting 12 28.3
2019-Oct-22 05:00 121 7 gusting 12 28.3
2019-Oct-22 04:40 130 8 gusting 11 28.3
2019-Oct-22 04:30 142 7 gusting 10 28.3
2019-Oct-22 04:20 091 6 gusting 11 28.4
2019-Oct-22 04:10 105 7 gusting 12 28.3
2019-Oct-22 04:00 109 7 gusting 10 28.4
2019-Oct-22 03:50 126 5 gusting 9 28.4
2019-Oct-22 03:40 129 7 gusting 8 28.4
2019-Oct-22 03:30 115 7 gusting 8 28.6
2019-Oct-22 03:20 117 5 gusting 8 28.6
2019-Oct-22 03:10 117 4 gusting 10 28.6
2019-Oct-22 03:00 126 5 gusting 8 28.6
2019-Oct-22 02:50 128 3 gusting 9 28.6
2019-Oct-22 02:40 115 5 gusting 8 28.4
2019-Oct-22 02:30 129 5 gusting 8 28.5
2019-Oct-22 02:20 096 3 gusting 6 28.5
2019-Oct-22 02:10 109 7 gusting 7 28.6
2019-Oct-22 02:00 112 8 gusting 8 28.6
2019-Oct-22 01:50 108 5 gusting 7 28.6
2019-Oct-22 01:40 110 6 gusting 8 28.5
2019-Oct-22 01:30 107 8 gusting 8 28.5
2019-Oct-22 01:20 097 4 gusting 7 28.6
2019-Oct-22 01:10 127 4 gusting 7 28.5
2019-Oct-22 01:00 121 5 gusting 6 28.6
2019-Oct-22 00:50 124 3 gusting 6 28.6
2019-Oct-22 00:40 115 2 gusting 5 28.7
2019-Oct-22 00:30 132 3 gusting 5 28.7
2019-Oct-22 00:20 101 0 gusting 4 28.7
2019-Oct-22 00:10 28.8
2019-Oct-22 00:00 102 1 gusting 3 28.8
2019-Oct-21 23:50 124 3 gusting 3 28.9
2019-Oct-21 23:40 136 2 gusting 3 29.1
2019-Oct-21 23:30 136 3 gusting 3 29.2
2019-Oct-21 23:20 136 2 gusting 2 29.4
2019-Oct-21 23:10 136 1 gusting 3 29.6
2019-Oct-21 23:00 135 1 gusting 4 29.7
2019-Oct-21 22:50 184 1 gusting 2 30.1
2019-Oct-21 22:40 184 0 gusting 2 30.2
2019-Oct-21 22:30 184 1 gusting 2 30.3
2019-Oct-21 22:20 184 0 gusting 3 30.5
2019-Oct-21 22:10 186 1 gusting 3 30.8
2019-Oct-21 22:00 163 2 gusting 3 30.9
2019-Oct-21 21:50 137 2 gusting 3 31.1
2019-Oct-21 21:40 194 2 gusting 3 31.3
2019-Oct-21 21:30 173 0 gusting 4 31.3
2019-Oct-21 21:20 141 0 gusting 4 31.4
2019-Oct-21 21:10 158 1 gusting 4 31.7
2019-Oct-21 21:00 198 31.9
2019-Oct-21 20:50 155 1 gusting 3 32.1
2019-Oct-21 20:40 234 2 gusting 3 31.9
2019-Oct-21 20:30 193 0 gusting 4 31.8
2019-Oct-21 20:20 123 2 gusting 5 31.6
2019-Oct-21 20:10 180 3 gusting 6 31.5
2019-Oct-21 20:00 31.6
2019-Oct-21 19:50 198 3 gusting 6 31.4
2019-Oct-21 19:40 228 5 gusting 8 31.5
2019-Oct-21 19:30 231 3 gusting 7 31.6
2019-Oct-21 19:20 192 6 gusting 7 31.8
2019-Oct-21 19:10 201 5 gusting 9 31.6
2019-Oct-21 19:00 168 2 gusting 9 31.5
2019-Oct-21 18:50 172 3 gusting 7 31.7
2019-Oct-21 18:40 198 7 gusting 10 31.8
2019-Oct-21 18:30 233 1 gusting 9 31.7
2019-Oct-21 18:20 204 5 gusting 10 31.7
2019-Oct-21 18:10 188 3 gusting 10 31.7
2019-Oct-21 18:00 188 6 gusting 8 31.8
2019-Oct-21 17:50 165 5 gusting 10 31.7
2019-Oct-21 17:40 182 5 gusting 10 31.8
2019-Oct-21 17:10 179 6 gusting 12 31.3
2019-Oct-21 17:00 152 6 gusting 10 31.3
2019-Oct-21 16:50 205 6 gusting 12 31.3
2019-Oct-21 16:40 200 4 gusting 10 31.3
2019-Oct-21 16:30 172 6 gusting 11 31.2
2019-Oct-21 16:20 172 6 gusting 13 31.1
2019-Oct-21 16:10 176 6 gusting 13 30.7
2019-Oct-21 16:00 190 3 gusting 13 30.6
2019-Oct-21 15:50 174 7 gusting 13 30.4
2019-Oct-21 15:40 179 5 gusting 13 30.7
2019-Oct-21 15:30 189 8 gusting 13 30.6
2019-Oct-21 15:20 179 10 gusting 13 30.6
2019-Oct-21 15:10 196 9 gusting 15 30.5
2019-Oct-21 15:00 105 5 gusting 12 30.4
2019-Oct-21 14:50 167 5 gusting 13 30.3
2019-Oct-21 14:40 052 5 gusting 12 30.4
2019-Oct-21 14:30 122 6 gusting 11 30.4
2019-Oct-21 14:20 143 6 gusting 10 30.2
2019-Oct-21 14:10 172 7 gusting 13 30.1
2019-Oct-21 14:00 153 5 gusting 12 30.0
2019-Oct-21 13:50 158 3 gusting 10 29.9
2019-Oct-21 13:40 176 4 gusting 10 29.8
2019-Oct-21 13:30 150 5 gusting 9 29.8
2019-Oct-21 13:20 167 2 gusting 10 29.7
2019-Oct-21 13:10 167 4 gusting 9 29.6
2019-Oct-21 13:00 166 6 gusting 10 29.4
2019-Oct-21 12:50 158 5 gusting 12 29.2
2019-Oct-21 12:40 150 3 gusting 11 29.0
2019-Oct-21 12:30 141 6 gusting 10 28.9
2019-Oct-21 12:20 174 8 gusting 12 28.8
2019-Oct-21 12:10 158 1 gusting 10 28.8
2019-Oct-21 12:00 154 2 gusting 8 28.7
2019-Oct-21 11:50 148 4 gusting 10 28.7
2019-Oct-21 11:30 159 5 gusting 9 28.6
2019-Oct-21 11:20 160 3 gusting 11 28.5
2019-Oct-21 11:10 114 6 gusting 9 28.6
2019-Oct-21 11:00 162 2 gusting 8 28.7
2019-Oct-21 10:50 164 2 gusting 9 28.6
2019-Oct-21 10:40 160 4 gusting 8 28.6
2019-Oct-21 10:30 187 4 gusting 10 28.6
2019-Oct-21 10:20 177 5 gusting 9 28.6
2019-Oct-21 10:10 147 1 gusting 8 28.6
2019-Oct-21 10:00 157 5 gusting 9 28.5
2019-Oct-21 09:50 161 6 gusting 7 28.6
2019-Oct-21 09:40 205 3 gusting 7 28.6
2019-Oct-21 09:30 137 2 gusting 7 28.5
2019-Oct-21 09:20 136 4 gusting 8 28.5
2019-Oct-21 09:10 165 2 gusting 7 28.4
2019-Oct-21 09:00 174 6 gusting 7 28.5
2019-Oct-21 08:50 135 5 gusting 7 28.5
2019-Oct-21 08:40 129 3 gusting 8 28.5
2019-Oct-21 08:30 122 2 gusting 7 28.6
2019-Oct-21 08:20 150 5 gusting 8 28.6
2019-Oct-21 08:10 153 6 gusting 9 28.6
2019-Oct-21 08:00 153 6 gusting 8 28.5
2019-Oct-21 07:50 116 4 gusting 9 28.6
2019-Oct-21 07:40 149 3 gusting 7 28.6
2019-Oct-21 07:30 173 3 gusting 8 28.5
2019-Oct-21 07:20 150 3 gusting 8 28.6
2019-Oct-21 07:10 141 6 gusting 9 28.6
2019-Oct-21 07:00 150 3 gusting 9 28.6
2019-Oct-21 06:50 159 6 gusting 9 28.6
2019-Oct-21 06:40 186 3 gusting 6 28.6
2019-Oct-21 06:30 134 6 gusting 7 28.6
2019-Oct-21 06:20 167 2 gusting 8 28.6
2019-Oct-21 06:10 162 6 gusting 9 28.6
2019-Oct-21 06:00 151 7 gusting 7 28.6
2019-Oct-21 05:50 147 7 gusting 8 28.7
2019-Oct-21 05:40 163 6 gusting 8 28.6
2019-Oct-21 05:30 084 4 gusting 10 28.7
2019-Oct-21 05:20 118 4 gusting 8 28.7
2019-Oct-21 05:10 162 4 gusting 8 28.7
2019-Oct-21 05:00 146 4 gusting 7 28.7
2019-Oct-21 04:50 151 5 gusting 6 28.7
2019-Oct-21 04:40 160 2 gusting 6 28.7
2019-Oct-21 04:30 150 2 gusting 7 28.6
2019-Oct-21 04:20 134 5 gusting 8 28.7
2019-Oct-21 04:10 132 5 gusting 8 28.6
2019-Oct-21 04:00 154 6 gusting 7 28.7
2019-Oct-21 03:50 122 3 gusting 7 28.7
2019-Oct-21 03:40 113 5 gusting 7 28.7
2019-Oct-21 03:30 159 0 gusting 6 28.7
2019-Oct-21 03:20 139 3 gusting 6 28.7
2019-Oct-21 03:10 124 2 gusting 6 28.7
2019-Oct-21 03:00 149 3 gusting 6 28.7
2019-Oct-21 02:50 125 3 gusting 6 28.7
2019-Oct-21 02:40 139 0 gusting 5 28.7
2019-Oct-21 02:30 126 3 gusting 6 28.7
2019-Oct-21 02:20 134 4 gusting 4 28.6
2019-Oct-21 02:10 126 3 gusting 4 28.7
2019-Oct-21 02:00 149 1 gusting 4 28.7
2019-Oct-21 01:50 158 1 gusting 4 28.7
2019-Oct-21 01:40 134 0 gusting 3 28.7
2019-Oct-21 01:30 28.7
2019-Oct-21 01:20 134 0 gusting 3 28.7
2019-Oct-21 01:10 134 0 gusting 3 28.8
2019-Oct-21 01:00 28.9
2019-Oct-21 00:50 131 3 gusting 4 28.9
2019-Oct-21 00:40 28.9
2019-Oct-21 00:30 141 1 gusting 3 29.0
2019-Oct-21 00:20 175 1 gusting 2 29.1
2019-Oct-21 00:10 175 0 gusting 2 29.1
2019-Oct-21 00:00 146 1 gusting 1 29.2
2019-Oct-20 23:50 29.2
2019-Oct-20 23:40 29.3
2019-Oct-20 23:30 29.4
2019-Oct-20 23:20 29.6
2019-Oct-20 23:10 29.6
2019-Oct-20 23:00 146 0 gusting 1 29.8
2019-Oct-20 22:50 29.9
2019-Oct-20 22:40 30.2
2019-Oct-20 22:30 30.4
2019-Oct-20 22:20 30.4
2019-Oct-20 22:10 191 3 gusting 4 30.6
2019-Oct-20 22:00 191 4 gusting 5 30.8
2019-Oct-20 21:50 193 2 gusting 4 30.8
2019-Oct-20 21:40 189 4 gusting 6 30.9
2019-Oct-20 21:30 222 3 gusting 7 31.1
2019-Oct-20 21:20 204 5 gusting 6 31.4
2019-Oct-20 21:10 31.4
2019-Oct-20 21:00 179 0 gusting 6 31.5